Time,TemperatureF,DewpointF,PressureIn,WindDirection,WindDirectionDegrees,WindSpeedMPH,WindSpeedGustMPH,Humidity,HourlyPrecipIn,Conditions,Clouds,dailyrainin,SoftwareType,DateUTC
2013-01-13 00:00:00,57.0,57.0,30.12,ENE,66,0.0,0.0,100,0.00,CLR,,0.01,WeatherDisplay:10.37,2013-01-13 05:00:00,
2013-01-13 00:03:00,57.0,57.0,30.12,ENE,66,0.0,0.0,100,0.00,RA,,0.00,WeatherDisplay:10.37,2013-01-13 05:03:00,
2013-01-13 00:08:00,57.0,57.0,30.12,ENE,66,0.0,0.0,100,0.00,RA,,0.00,WeatherDisplay:10.37,2013-01-13 05:08:00,
2013-01-13 00:13:00,56.9,56.9,30.11,ENE,66,0.0,0.0,100,0.00,CLR,,0.00,WeatherDisplay:10.37,2013-01-13 05:13:00,
2013-01-13 00:18:00,56.8,56.8,30.12,ENE,66,0.0,0.0,100,0.00,CLR,,0.00,WeatherDisplay:10.37,2013-01-13 05:18:00,
2013-01-13 00:23:00,56.9,56.9,30.12,ENE,66,0.0,0.0,100,0.00,CLR,,0.00,WeatherDisplay:10.37,2013-01-13 05:23:00,
2013-01-13 00:28:00,56.8,56.8,30.12,ENE,66,0.0,0.0,100,0.00,CLR,,0.00,WeatherDisplay:10.37,2013-01-13 05:28:00,
2013-01-13 00:33:00,56.8,56.8,30.13,ENE,66,0.0,0.0,100,0.00,CLR,,0.00,WeatherDisplay:10.37,2013-01-13 05:33:00,
2013-01-13 00:38:00,56.9,56.9,30.12,ENE,66,0.0,0.0,100,0.00,CLR,,0.00,WeatherDisplay:10.37,2013-01-13 05:38:00,
2013-01-13 00:43:00,56.7,56.7,30.12,ENE,66,0.0,0.0,100,0.00,CLR,,0.00,WeatherDisplay:10.37,2013-01-13 05:43:00,
2013-01-13 00:48:00,56.8,56.8,30.12,ENE,66,0.0,0.0,100,0.00,CLR,,0.00,WeatherDisplay:10.37,2013-01-13 05:48:00,
2013-01-13 00:53:00,56.8,56.8,30.12,ENE,66,0.0,0.0,100,0.00,CLR,,0.00,WeatherDisplay:10.37,2013-01-13 05:53:00,
2013-01-13 00:58:00,56.7,56.7,30.12,ENE,66,0.0,0.0,100,0.00,CLR,,0.00,WeatherDisplay:10.37,2013-01-13 05:58:00,
2013-01-13 01:03:00,56.7,56.7,30.12,ENE,66,0.0,0.0,100,0.00,CLR,,0.00,WeatherDisplay:10.37,2013-01-13 06:03:00,
2013-01-13 01:08:00,56.8,56.8,30.12,ENE,66,0.0,0.0,100,0.00,CLR,,0.00,WeatherDisplay:10.37,2013-01-13 06:08:00,
2013-01-13 01:13:00,56.7,56.7,30.12,ENE,66,0.0,0.0,100,0.00,CLR,,0.00,WeatherDisplay:10.37,2013-01-13 06:13:00,
2013-01-13 01:18:00,56.6,56.6,30.12,ENE,66,0.0,0.0,100,0.00,CLR,,0.00,WeatherDisplay:10.37,2013-01-13 06:18:00,
2013-01-13 01:23:00,56.5,56.5,30.12,ENE,66,0.0,0.0,100,0.00,CLR,,0.00,WeatherDisplay:10.37,2013-01-13 06:23:00,
2013-01-13 01:28:00,56.4,56.4,30.12,ENE,66,0.0,0.0,100,0.00,CLR,,0.00,WeatherDisplay:10.37,2013-01-13 06:28:00,
2013-01-13 01:33:00,56.4,56.4,30.12,ENE,66,0.0,0.0,100,0.00,CLR,,0.00,WeatherDisplay:10.37,2013-01-13 06:33:00,
2013-01-13 01:38:00,56.3,56.3,30.12,ENE,66,0.0,0.0,100,0.00,CLR,,0.00,WeatherDisplay:10.37,2013-01-13 06:38:00,
2013-01-13 01:43:00,56.3,56.3,30.12,ENE,66,0.0,0.0,100,0.00,CLR,,0.00,WeatherDisplay:10.37,2013-01-13 06:43:00,
2013-01-13 01:48:00,56.1,56.1,30.12,ENE,66,0.0,0.0,100,0.00,CLR,,0.00,WeatherDisplay:10.37,2013-01-13 06:48:00,
2013-01-13 01:53:00,56.2,56.2,30.12,ENE,66,0.0,0.0,100,0.00,CLR,,0.00,WeatherDisplay:10.37,2013-01-13 06:53:00,
2013-01-13 01:58:00,56.1,56.1,30.12,ENE,66,0.0,0.0,100,0.00,CLR,,0.00,WeatherDisplay:10.37,2013-01-13 06:58:00,
2013-01-13 02:03:00,55.8,55.8,30.12,ENE,66,0.0,0.0,100,0.00,CLR,,0.00,WeatherDisplay:10.37,2013-01-13 07:03:00,
2013-01-13 02:08:00,55.8,55.8,30.13,ENE,66,0.0,0.0,100,0.00,CLR,,0.00,WeatherDisplay:10.37,2013-01-13 07:08:00,
2013-01-13 02:13:00,55.8,55.8,30.13,ENE,66,0.0,0.0,100,0.00,CLR,,0.00,WeatherDisplay:10.37,2013-01-13 07:13:00,
2013-01-13 02:18:00,55.7,55.7,30.13,ENE,66,0.0,0.0,100,0.00,CLR,,0.00,WeatherDisplay:10.37,2013-01-13 07:18:00,
2013-01-13 02:23:00,55.7,55.7,30.13,ENE,66,0.0,0.0,100,0.00,CLR,,0.00,WeatherDisplay:10.37,2013-01-13 07:23:00,
2013-01-13 02:28:00,55.6,55.6,30.13,ENE,66,0.0,0.0,100,0.00,CLR,,0.00,WeatherDisplay:10.37,2013-01-13 07:28:00,
2013-01-13 02:33:00,55.5,55.5,30.12,ENE,66,0.0,0.0,100,0.00,CLR,,0.00,WeatherDisplay:10.37,2013-01-13 07:33:00,
2013-01-13 02:38:00,55.5,55.5,30.12,ENE,66,0.0,0.0,100,0.00,CLR,,0.00,WeatherDisplay:10.37,2013-01-13 07:38:00,
2013-01-13 02:43:00,55.4,55.4,30.12,ENE,66,0.0,0.0,100,0.00,CLR,,0.00,WeatherDisplay:10.37,2013-01-13 07:43:00,
2013-01-13 02:48:00,55.4,55.4,30.12,ENE,66,0.0,0.0,100,0.00,CLR,,0.00,WeatherDisplay:10.37,2013-01-13 07:48:00,
2013-01-13 02:53:00,55.2,55.2,30.12,ENE,66,0.0,0.0,100,0.00,CLR,,0.00,WeatherDisplay:10.37,2013-01-13 07:53:00,
2013-01-13 02:58:00,55.2,55.2,30.12,ENE,66,0.0,0.0,100,0.00,CLR,,0.00,WeatherDisplay:10.37,2013-01-13 07:58:00,
2013-01-13 03:03:00,55.0,55.0,30.12,ENE,66,0.0,0.0,100,0.00,CLR,,0.00,WeatherDisplay:10.37,2013-01-13 08:03:00,
2013-01-13 03:08:00,54.9,54.9,30.12,ENE,66,0.0,0.0,100,0.00,CLR,,0.00,WeatherDisplay:10.37,2013-01-13 08:08:00,
2013-01-13 03:13:00,54.9,54.9,30.12,ENE,66,0.0,0.0,100,0.00,CLR,,0.00,WeatherDisplay:10.37,2013-01-13 08:13:00,
2013-01-13 03:18:00,55.0,55.0,30.12,ENE,66,0.0,0.0,100,0.00,CLR,,0.00,WeatherDisplay:10.37,2013-01-13 08:18:00,
2013-01-13 03:23:00,55.3,55.3,30.12,ENE,66,0.0,0.0,100,0.00,CLR,,0.00,WeatherDisplay:10.37,2013-01-13 08:23:00,
2013-01-13 03:28:00,55.5,55.5,30.12,ENE,66,0.0,0.0,100,0.00,CLR,,0.00,WeatherDisplay:10.37,2013-01-13 08:28:00,
2013-01-13 03:34:00,55.7,55.7,30.12,ENE,66,0.0,0.0,100,0.00,CLR,,0.00,WeatherDisplay:10.37,2013-01-13 08:34:00,
2013-01-13 03:38:00,55.8,55.8,30.12,ENE,66,0.0,0.0,100,0.00,CLR,,0.00,WeatherDisplay:10.37,2013-01-13 08:38:00,
2013-01-13 03:44:00,55.9,55.9,30.12,ENE,66,0.0,0.0,100,0.00,CLR,,0.00,WeatherDisplay:10.37,2013-01-13 08:44:00,
2013-01-13 03:49:00,56.0,56.0,30.11,ENE,66,0.0,0.0,100,0.00,CLR,,0.00,WeatherDisplay:10.37,2013-01-13 08:49:00,
2013-01-13 03:54:00,56.1,56.1,30.12,ENE,66,0.0,0.0,100,0.00,CLR,,0.00,WeatherDisplay:10.37,2013-01-13 08:54:00,
2013-01-13 03:59:00,56.2,56.2,30.11,ENE,66,0.0,0.0,100,0.00,CLR,,0.00,WeatherDisplay:10.37,2013-01-13 08:59:00,
2013-01-13 04:04:00,56.4,56.4,30.11,ENE,66,0.0,0.0,100,0.00,CLR,,0.00,WeatherDisplay:10.37,2013-01-13 09:04:00,
2013-01-13 04:09:00,56.4,56.4,30.11,ENE,66,0.0,0.0,100,0.00,CLR,,0.00,WeatherDisplay:10.37,2013-01-13 09:09:00,
2013-01-13 04:14:00,56.2,56.2,30.11,ENE,66,0.0,0.0,100,0.00,CLR,,0.00,WeatherDisplay:10.37,2013-01-13 09:14:00,
2013-01-13 04:19:00,56.5,56.5,30.11,ENE,66,0.0,0.0,100,0.00,CLR,,0.00,WeatherDisplay:10.37,2013-01-13 09:19:00,
2013-01-13 04:24:00,56.6,56.6,30.11,ENE,66,0.0,0.0,100,0.00,CLR,,0.00,WeatherDisplay:10.37,2013-01-13 09:24:00,
2013-01-13 04:29:00,56.6,56.6,30.11,ENE,66,0.0,0.0,100,0.00,CLR,,0.00,WeatherDisplay:10.37,2013-01-13 09:29:00,
2013-01-13 04:34:00,56.4,56.4,30.11,ENE,66,0.0,0.0,100,0.00,CLR,,0.00,WeatherDisplay:10.37,2013-01-13 09:34:00,
2013-01-13 04:39:00,56.6,56.6,30.11,ENE,66,0.0,0.0,100,0.00,CLR,,0.00,WeatherDisplay:10.37,2013-01-13 09:39:00,
2013-01-13 04:44:00,56.9,56.9,30.10,ENE,66,0.0,0.0,100,0.00,CLR,,0.00,WeatherDisplay:10.37,2013-01-13 09:44:00,
2013-01-13 04:49:00,56.9,56.9,30.10,ENE,66,0.0,0.0,100,0.00,CLR,,0.00,WeatherDisplay:10.37,2013-01-13 09:49:00,
2013-01-13 04:54:00,57.1,57.1,30.11,ENE,66,0.0,0.0,100,0.00,CLR,,0.00,WeatherDisplay:10.37,2013-01-13 09:54:00,
2013-01-13 04:59:00,57.6,57.6,30.11,ENE,66,0.0,0.0,100,0.00,CLR,,0.00,WeatherDisplay:10.37,2013-01-13 09:59:00,
2013-01-13 05:04:00,57.8,57.8,30.11,ENE,66,0.0,0.0,100,0.00,CLR,,0.00,WeatherDisplay:10.37,2013-01-13 10:04:00,
2013-01-13 05:09:00,57.8,57.8,30.11,ENE,66,0.0,0.0,100,0.00,CLR,,0.00,WeatherDisplay:10.37,2013-01-13 10:09:00,
2013-01-13 05:14:00,57.5,57.5,30.11,ENE,66,0.0,0.0,100,0.00,CLR,,0.00,WeatherDisplay:10.37,2013-01-13 10:14:00,
2013-01-13 05:19:00,57.6,57.6,30.11,ENE,66,0.0,0.0,100,0.00,CLR,,0.00,WeatherDisplay:10.37,2013-01-13 10:19:00,
2013-01-13 05:24:00,57.6,57.6,30.11,ENE,66,0.0,0.0,100,0.00,CLR,,0.00,WeatherDisplay:10.37,2013-01-13 10:24:00,
2013-01-13 05:29:00,57.3,57.3,30.11,ENE,66,0.0,0.0,100,0.00,CLR,,0.00,WeatherDisplay:10.37,2013-01-13 10:29:00,
2013-01-13 05:34:00,57.1,57.1,30.11,ENE,66,0.0,0.0,100,0.00,CLR,,0.00,WeatherDisplay:10.37,2013-01-13 10:34:00,
2013-01-13 05:39:00,57.0,57.0,30.11,ENE,66,0.0,0.0,100,0.00,CLR,,0.00,WeatherDisplay:10.37,2013-01-13 10:39:00,
2013-01-13 05:44:00,56.8,56.8,30.11,ENE,66,0.0,0.0,100,0.00,CLR,,0.00,WeatherDisplay:10.37,2013-01-13 10:44:00,
2013-01-13 05:49:00,56.7,56.7,30.11,ENE,66,0.0,0.0,100,0.00,CLR,,0.00,WeatherDisplay:10.37,2013-01-13 10:49:00,
2013-01-13 05:54:00,56.5,56.5,30.11,ENE,66,0.0,0.0,100,0.00,CLR,,0.00,WeatherDisplay:10.37,2013-01-13 10:54:00,
2013-01-13 05:59:00,56.3,56.3,30.11,ENE,66,0.0,0.0,100,0.00,CLR,,0.00,WeatherDisplay:10.37,2013-01-13 10:59:00,
2013-01-13 06:04:00,56.1,56.1,30.12,ENE,66,0.0,0.0,100,0.00,CLR,,0.00,WeatherDisplay:10.37,2013-01-13 11:04:00,
2013-01-13 06:09:00,56.0,56.0,30.12,ENE,66,0.0,0.0,100,0.00,CLR,,0.00,WeatherDisplay:10.37,2013-01-13 11:09:00,
2013-01-13 06:14:00,55.9,55.9,30.12,ENE,66,0.0,0.0,100,0.00,CLR,,0.00,WeatherDisplay:10.37,2013-01-13 11:14:00,
2013-01-13 06:19:00,55.7,55.7,30.12,ENE,66,0.0,0.0,100,0.00,CLR,,0.00,WeatherDisplay:10.37,2013-01-13 11:19:00,
2013-01-13 06:24:00,55.6,55.6,30.12,ENE,66,0.0,0.0,100,0.00,CLR,,0.00,WeatherDisplay:10.37,2013-01-13 11:24:00,
2013-01-13 06:29:00,55.5,55.5,30.12,ENE,66,0.0,0.0,100,0.00,CLR,,0.00,WeatherDisplay:10.37,2013-01-13 11:29:00,
2013-01-13 06:34:00,55.3,55.3,30.12,ENE,66,0.0,0.0,100,0.00,CLR,,0.00,WeatherDisplay:10.37,2013-01-13 11:34:00,
2013-01-13 06:39:00,55.3,55.3,30.12,ENE,66,0.0,0.0,100,0.00,CLR,,0.00,WeatherDisplay:10.37,2013-01-13 11:39:00,
2013-01-13 06:44:00,55.2,55.2,30.13,ENE,66,0.0,0.0,100,0.00,CLR,,0.00,WeatherDisplay:10.37,2013-01-13 11:44:00,
2013-01-13 06:49:00,55.1,55.1,30.12,ENE,66,0.0,0.0,100,0.00,CLR,,0.00,WeatherDisplay:10.37,2013-01-13 11:49:00,
2013-01-13 06:54:00,54.9,54.9,30.13,ENE,66,0.0,0.0,100,0.00,CLR,,0.00,WeatherDisplay:10.37,2013-01-13 11:54:00,
2013-01-13 06:59:00,54.9,54.9,30.13,ENE,66,0.0,0.0,100,0.00,CLR,,0.00,WeatherDisplay:10.37,2013-01-13 11:59:00,
2013-01-13 07:04:00,54.8,54.8,30.13,ENE,66,0.0,0.0,100,0.00,CLR,,0.00,WeatherDisplay:10.37,2013-01-13 12:04:00,
2013-01-13 07:09:00,55.0,55.0,30.13,ENE,66,0.0,0.0,100,0.00,CLR,,0.00,WeatherDisplay:10.37,2013-01-13 12:09:00,
2013-01-13 07:14:00,55.3,55.3,30.13,ENE,66,0.0,0.0,100,0.00,CLR,,0.00,WeatherDisplay:10.37,2013-01-13 12:14:00,
2013-01-13 07:19:00,56.3,56.3,30.13,ENE,66,0.0,0.0,100,0.00,CLR,,0.00,WeatherDisplay:10.37,2013-01-13 12:19:00,
2013-01-13 07:24:00,56.7,56.7,30.13,ENE,66,0.0,0.0,100,0.00,CLR,,0.00,WeatherDisplay:10.37,2013-01-13 12:24:00,
2013-01-13 07:29:00,57.2,57.2,30.14,ENE,66,0.0,0.0,100,0.00,CLR,,0.00,WeatherDisplay:10.37,2013-01-13 12:29:00,
2013-01-13 07:34:00,57.6,57.6,30.14,ENE,66,0.0,0.0,100,0.00,CLR,,0.00,WeatherDisplay:10.37,2013-01-13 12:34:00,
2013-01-13 07:39:00,58.5,58.5,30.14,ENE,66,0.0,0.0,100,0.00,CLR,,0.00,WeatherDisplay:10.37,2013-01-13 12:39:00,
2013-01-13 07:44:00,58.5,58.5,30.14,ENE,66,0.0,0.0,100,0.00,CLR,,0.00,WeatherDisplay:10.37,2013-01-13 12:44:00,
2013-01-13 07:49:00,58.3,58.3,30.14,ENE,66,0.0,0.0,100,0.00,CLR,,0.00,WeatherDisplay:10.37,2013-01-13 12:49:00,
2013-01-13 07:54:00,57.7,57.7,30.14,ENE,66,0.0,0.0,100,0.00,CLR,,0.00,WeatherDisplay:10.37,2013-01-13 12:54:00,
2013-01-13 07:59:00,57.4,57.4,30.14,ENE,66,0.0,0.0,100,0.00,CLR,,0.00,WeatherDisplay:10.37,2013-01-13 12:59:00,
2013-01-13 08:04:00,57.7,57.7,30.14,ENE,66,0.0,0.0,100,0.00,CLR,,0.00,WeatherDisplay:10.37,2013-01-13 13:04:00,
2013-01-13 08:09:00,57.8,57.8,30.14,ENE,66,0.0,0.0,100,0.00,CLR,,0.00,WeatherDisplay:10.37,2013-01-13 13:09:00,
2013-01-13 08:14:00,58.0,58.0,30.14,ENE,66,0.0,0.0,100,0.00,CLR,,0.00,WeatherDisplay:10.37,2013-01-13 13:14:00,
2013-01-13 08:19:00,58.0,58.0,30.14,ENE,66,0.0,0.0,100,0.00,CLR,,0.00,WeatherDisplay:10.37,2013-01-13 13:19:00,
2013-01-13 08:24:00,58.1,58.1,30.15,ENE,66,0.0,0.0,100,0.00,CLR,,0.00,WeatherDisplay:10.37,2013-01-13 13:24:00,
2013-01-13 08:29:00,58.3,58.3,30.14,ENE,66,0.0,0.0,100,0.00,CLR,,0.00,WeatherDisplay:10.37,2013-01-13 13:29:00,
2013-01-13 08:35:00,58.3,58.3,30.15,ENE,66,0.0,0.0,100,0.00,CLR,,0.00,WeatherDisplay:10.37,2013-01-13 13:35:00,
2013-01-13 08:40:00,58.4,58.4,30.15,ENE,66,0.0,0.0,100,0.00,CLR,,0.00,WeatherDisplay:10.37,2013-01-13 13:40:00,
2013-01-13 08:45:00,58.4,58.4,30.15,ENE,66,0.0,0.0,100,0.00,CLR,,0.00,WeatherDisplay:10.37,2013-01-13 13:45:00,
2013-01-13 08:50:00,58.6,58.6,30.15,ENE,66,0.0,0.0,100,0.00,CLR,,0.00,WeatherDisplay:10.37,2013-01-13 13:50:00,
2013-01-13 08:55:00,58.6,58.6,30.15,ENE,66,0.0,0.0,100,0.00,CLR,,0.00,WeatherDisplay:10.37,2013-01-13 13:55:00,
2013-01-13 09:00:00,58.7,58.7,30.15,ENE,66,0.0,0.0,100,0.00,CLR,,0.00,WeatherDisplay:10.37,2013-01-13 14:00:00,
2013-01-13 09:05:00,58.9,58.9,30.15,ENE,66,0.0,0.0,100,0.00,CLR,,0.00,WeatherDisplay:10.37,2013-01-13 14:05:00,
2013-01-13 09:10:00,59.0,59.0,30.15,ENE,66,0.0,0.0,100,0.00,CLR,,0.00,WeatherDisplay:10.37,2013-01-13 14:10:00,
2013-01-13 09:15:00,59.0,59.0,30.16,ENE,66,0.0,0.0,100,0.00,CLR,,0.00,WeatherDisplay:10.37,2013-01-13 14:15:00,
2013-01-13 09:20:00,59.3,59.3,30.15,ENE,66,0.0,0.0,100,0.00,CLR,,0.00,WeatherDisplay:10.37,2013-01-13 14:20:00,
2013-01-13 09:25:00,59.5,59.5,30.15,ENE,66,0.0,0.0,100,0.00,CLR,,0.00,WeatherDisplay:10.37,2013-01-13 14:25:00,
2013-01-13 09:30:00,59.7,59.7,30.15,ENE,66,0.0,0.0,100,0.00,CLR,,0.00,WeatherDisplay:10.37,2013-01-13 14:30:00,
2013-01-13 09:35:00,59.9,59.9,30.15,SSW,212,0.0,0.0,100,0.00,CLR,,0.00,WeatherDisplay:10.37,2013-01-13 14:35:00,
2013-01-13 09:40:00,60.1,60.1,30.15,SSW,212,0.0,0.0,100,0.00,CLR,,0.00,WeatherDisplay:10.37,2013-01-13 14:40:00,
2013-01-13 09:45:00,60.4,60.4,30.15,SW,226,1.7,1.7,100,0.00,CLR,,0.00,WeatherDisplay:10.37,2013-01-13 14:45:00,
2013-01-13 09:50:00,60.6,60.6,30.15,SW,226,0.0,0.0,100,0.00,CLR,,0.00,WeatherDisplay:10.37,2013-01-13 14:50:00,
2013-01-13 09:55:00,60.7,60.7,30.15,WSW,248,0.0,0.0,100,0.00,CLR,,0.00,WeatherDisplay:10.37,2013-01-13 14:55:00,
2013-01-13 10:00:00,61.0,61.0,30.16,South,191,2.3,2.3,100,0.00,CLR,,0.00,WeatherDisplay:10.37,2013-01-13 15:00:00,
2013-01-13 10:05:00,61.3,61.3,30.16,SSW,198,2.3,2.3,100,0.00,CLR,,0.00,WeatherDisplay:10.37,2013-01-13 15:05:00,
2013-01-13 10:10:00,61.5,61.5,30.16,SW,227,0.0,0.0,100,0.00,CLR,,0.00,WeatherDisplay:10.37,2013-01-13 15:10:00,
2013-01-13 10:15:00,61.6,61.6,30.16,SSE,147,0.0,0.0,100,0.00,CLR,,0.00,WeatherDisplay:10.37,2013-01-13 15:15:00,
2013-01-13 10:20:00,61.7,61.7,30.16,SE,144,0.0,0.0,100,0.00,CLR,,0.00,WeatherDisplay:10.37,2013-01-13 15:20:00,
2013-01-13 10:25:00,61.9,61.9,30.16,WSW,248,8.9,8.9,100,0.00,CLR,,0.00,WeatherDisplay:10.37,2013-01-13 15:25:00,
2013-01-13 10:30:00,62.2,62.2,30.15,South,175,4.6,4.6,100,0.00,CLR,,0.00,WeatherDisplay:10.37,2013-01-13 15:30:00,
2013-01-13 10:35:00,63.0,63.0,30.15,SSE,157,1.1,0.0,100,0.00,CLR,,0.00,WeatherDisplay:10.37,2013-01-13 15:35:00,
2013-01-13 10:40:00,63.3,63.3,30.15,SW,233,1.3,1.3,100,0.00,CLR,,0.00,WeatherDisplay:10.37,2013-01-13 15:40:00,
2013-01-13 10:45:00,63.6,63.6,30.14,SE,141,2.3,2.3,100,0.00,CLR,,0.00,WeatherDisplay:10.37,2013-01-13 15:45:00,
2013-01-13 10:50:00,63.8,63.8,30.14,SSE,147,3.5,0.0,100,0.00,CLR,,0.00,WeatherDisplay:10.37,2013-01-13 15:50:00,
2013-01-13 10:55:00,64.0,64.0,30.14,South,189,6.9,6.9,100,0.00,CLR,,0.00,WeatherDisplay:10.37,2013-01-13 15:55:00,
2013-01-13 11:00:00,64.0,64.0,30.14,ESE,102,4.6,4.6,100,0.00,CLR,,0.00,WeatherDisplay:10.37,2013-01-13 16:00:00,
2013-01-13 11:05:00,64.4,64.4,30.14,SW,216,0.0,0.0,100,0.00,CLR,,0.00,WeatherDisplay:10.37,2013-01-13 16:05:00,
2013-01-13 11:10:00,66.6,66.6,30.13,West,272,4.1,4.1,100,0.00,CLR,,0.00,WeatherDisplay:10.37,2013-01-13 16:10:00,
2013-01-13 11:15:00,68.6,67.7,30.13,South,179,4.6,4.6,97,0.00,CLR,,0.00,WeatherDisplay:10.37,2013-01-13 16:15:00,
2013-01-13 11:20:00,69.4,67.6,30.13,SSE,158,0.0,0.0,94,0.00,CLR,,0.00,WeatherDisplay:10.37,2013-01-13 16:20:00,
2013-01-13 11:25:00,68.6,67.1,30.13,SSE,165,5.8,5.8,95,0.00,CLR,,0.00,WeatherDisplay:10.37,2013-01-13 16:25:00,
2013-01-13 11:30:00,68.2,67.0,30.12,South,174,6.9,6.9,96,0.00,CLR,,0.00,WeatherDisplay:10.37,2013-01-13 16:30:00,
2013-01-13 11:35:00,69.2,67.4,30.12,SSE,157,4.6,4.6,94,0.00,CLR,,0.00,WeatherDisplay:10.37,2013-01-13 16:35:00,
2013-01-13 11:40:00,69.2,66.8,30.12,WSW,244,2.7,0.0,92,0.00,CLR,,0.00,WeatherDisplay:10.37,2013-01-13 16:40:00,
2013-01-13 11:45:00,68.5,67.0,30.12,SSW,199,6.9,6.9,95,0.00,CLR,,0.00,WeatherDisplay:10.37,2013-01-13 16:45:00,
2013-01-13 11:50:00,69.1,67.3,30.11,SW,222,5.9,5.9,94,0.00,CLR,,0.00,WeatherDisplay:10.37,2013-01-13 16:50:00,
2013-01-13 11:55:00,69.6,66.5,30.11,SSW,212,6.9,6.9,90,0.00,CLR,,0.00,WeatherDisplay:10.37,2013-01-13 16:55:00,
2013-01-13 12:00:00,69.4,66.3,30.11,SSW,199,6.9,6.9,90,0.00,CLR,,0.00,WeatherDisplay:10.37,2013-01-13 17:00:00,
2013-01-13 12:05:00,69.5,67.1,30.11,SE,128,4.6,4.6,92,0.00,CLR,,0.00,WeatherDisplay:10.37,2013-01-13 17:05:00,
2013-01-13 12:10:00,70.8,66.7,30.11,West,268,5.8,5.8,87,0.00,CLR,,0.00,WeatherDisplay:10.37,2013-01-13 17:10:00,
2013-01-13 12:15:00,70.7,66.3,30.11,SSE,150,3.5,3.5,86,0.00,CLR,,0.00,WeatherDisplay:10.37,2013-01-13 17:15:00,
2013-01-13 12:20:00,70.1,66.4,30.11,SW,227,5.4,5.4,88,0.00,CLR,,0.00,WeatherDisplay:10.37,2013-01-13 17:20:00,
2013-01-13 12:25:00,69.5,66.4,30.10,SE,136,8.1,8.1,90,0.00,CLR,,0.00,WeatherDisplay:10.37,2013-01-13 17:25:00,
2013-01-13 12:30:00,69.1,66.4,30.09,South,184,3.5,3.9,91,0.00,CLR,,0.00,WeatherDisplay:10.37,2013-01-13 17:30:00,
2013-01-13 12:35:00,69.3,66.9,30.09,SE,138,5.8,5.8,92,0.00,CLR,,0.00,WeatherDisplay:10.37,2013-01-13 17:35:00,
2013-01-13 12:40:00,69.5,66.8,30.09,SSE,162,4.6,4.6,91,0.00,CLR,,0.00,WeatherDisplay:10.37,2013-01-13 17:40:00,
2013-01-13 12:46:00,69.8,66.7,30.09,ESE,110,5.8,5.8,90,0.00,CLR,,0.00,WeatherDisplay:10.37,2013-01-13 17:46:00,
2013-01-13 12:51:00,70.3,67.2,30.08,WSW,257,6.9,6.9,90,0.00,CLR,,0.00,WeatherDisplay:10.37,2013-01-13 17:51:00,
2013-01-13 12:56:00,70.3,66.6,30.09,SW,217,5.0,5.0,88,0.00,CLR,,0.00,WeatherDisplay:10.37,2013-01-13 17:56:00,
2013-01-13 13:01:00,70.1,66.7,30.08,South,185,5.8,5.8,89,0.00,CLR,,0.00,WeatherDisplay:10.37,2013-01-13 18:01:00,
2013-01-13 13:06:00,69.8,66.7,30.08,South,172,5.8,5.8,90,0.00,CLR,,0.00,WeatherDisplay:10.37,2013-01-13 18:06:00,
2013-01-13 13:11:00,69.8,67.1,30.08,South,182,6.9,6.9,91,0.00,CLR,,0.00,WeatherDisplay:10.37,2013-01-13 18:11:00,
2013-01-13 13:16:00,70.4,67.3,30.08,SSW,205,8.1,8.1,90,0.00,CLR,,0.00,WeatherDisplay:10.37,2013-01-13 18:16:00,
2013-01-13 13:21:00,70.7,67.0,30.08,SSE,150,4.6,4.6,88,0.00,CLR,,0.00,WeatherDisplay:10.37,2013-01-13 18:21:00,
2013-01-13 13:26:00,70.7,67.3,30.08,WSW,240,6.3,6.3,89,0.00,CLR,,0.00,WeatherDisplay:10.37,2013-01-13 18:26:00,
2013-01-13 13:31:00,70.9,67.2,30.08,WSW,241,9.2,9.2,88,0.00,CLR,,0.00,WeatherDisplay:10.37,2013-01-13 18:31:00,
2013-01-13 13:36:00,70.9,67.8,30.08,SSW,202,4.6,4.6,90,0.00,CLR,,0.00,WeatherDisplay:10.37,2013-01-13 18:36:00,
2013-01-13 13:41:00,71.0,67.6,30.07,SSW,208,6.9,6.9,89,0.00,CLR,,0.00,WeatherDisplay:10.37,2013-01-13 18:41:00,
2013-01-13 13:46:00,71.1,67.0,30.07,ESE,113,5.8,5.8,87,0.00,CLR,,0.00,WeatherDisplay:10.37,2013-01-13 18:46:00,
2013-01-13 13:51:00,71.1,66.7,30.07,SE,131,6.9,6.9,86,0.00,CLR,,0.00,WeatherDisplay:10.37,2013-01-13 18:51:00,
2013-01-13 13:56:00,71.0,66.9,30.07,ESE,123,3.5,3.5,87,0.00,CLR,,0.00,WeatherDisplay:10.37,2013-01-13 18:56:00,
2013-01-13 14:01:00,71.1,66.7,30.07,West,272,4.6,4.6,86,0.00,CLR,,0.00,WeatherDisplay:10.37,2013-01-13 19:01:00,
2013-01-13 14:06:00,71.3,66.2,30.07,SE,124,8.1,8.1,84,0.00,CLR,,0.00,WeatherDisplay:10.37,2013-01-13 19:06:00,
2013-01-13 14:11:00,70.9,66.5,30.07,South,175,6.9,6.9,86,0.00,CLR,,0.00,WeatherDisplay:10.37,2013-01-13 19:11:00,
2013-01-13 14:16:00,70.8,66.1,30.07,SE,134,4.6,4.6,85,0.00,CLR,,0.00,WeatherDisplay:10.37,2013-01-13 19:16:00,
2013-01-13 14:21:00,70.6,66.2,30.07,SSW,195,3.5,3.5,86,0.00,CLR,,0.00,WeatherDisplay:10.37,2013-01-13 19:21:00,
2013-01-13 14:26:00,70.8,66.1,30.07,SE,138,4.6,4.6,85,0.00,CLR,,0.00,WeatherDisplay:10.37,2013-01-13 19:26:00,
2013-01-13 14:31:00,71.1,66.0,30.07,SE,144,3.5,3.5,84,0.00,CLR,,0.00,WeatherDisplay:10.37,2013-01-13 19:31:00,
2013-01-13 14:36:00,71.5,66.1,30.07,WSW,237,3.5,3.5,83,0.00,CLR,,0.00,WeatherDisplay:10.37,2013-01-13 19:36:00,
2013-01-13 14:41:00,71.5,65.7,30.07,SSE,148,5.8,5.8,82,0.00,CLR,,0.00,WeatherDisplay:10.37,2013-01-13 19:41:00,
2013-01-13 14:46:00,71.4,66.0,30.07,SW,234,3.4,3.4,83,0.00,CLR,,0.00,WeatherDisplay:10.37,2013-01-13 19:46:00,
2013-01-13 14:51:00,71.5,66.1,30.07,SE,145,5.8,5.8,83,0.00,CLR,,0.00,WeatherDisplay:10.37,2013-01-13 19:51:00,
2013-01-13 14:56:00,71.8,65.7,30.07,South,172,4.6,4.6,81,0.00,CLR,,0.00,WeatherDisplay:10.37,2013-01-13 19:56:00,
2013-01-13 15:01:00,71.7,65.6,30.08,SSW,195,6.9,6.9,81,0.00,CLR,,0.00,WeatherDisplay:10.37,2013-01-13 20:01:00,
2013-01-13 15:06:00,71.8,65.7,30.08,SSW,200,6.9,6.9,81,0.00,CLR,,0.00,WeatherDisplay:10.37,2013-01-13 20:06:00,
2013-01-13 15:11:00,71.7,65.9,30.08,SSW,209,8.1,8.1,82,0.00,CLR,,0.00,WeatherDisplay:10.37,2013-01-13 20:11:00,
2013-01-13 15:16:00,71.5,65.4,30.08,East,95,2.3,2.3,81,0.00,CLR,,0.00,WeatherDisplay:10.37,2013-01-13 20:16:00,
2013-01-13 15:21:00,71.6,65.8,30.08,West,260,6.9,6.9,82,0.00,CLR,,0.00,WeatherDisplay:10.37,2013-01-13 20:21:00,
2013-01-13 15:26:00,71.5,65.7,30.08,SSW,192,6.9,6.9,82,0.00,CLR,,0.00,WeatherDisplay:10.37,2013-01-13 20:26:00,
2013-01-13 15:31:00,71.6,65.8,30.08,SSW,203,3.6,3.6,82,0.00,CLR,,0.00,WeatherDisplay:10.37,2013-01-13 20:31:00,
2013-01-13 15:36:00,71.6,65.5,30.08,SW,219,3.5,3.5,81,0.00,CLR,,0.00,WeatherDisplay:10.37,2013-01-13 20:36:00,
2013-01-13 15:41:00,71.7,66.9,30.08,WSW,241,6.9,6.9,85,0.00,CLR,,0.00,WeatherDisplay:10.37,2013-01-13 20:41:00,
2013-01-13 15:46:00,71.8,66.7,30.08,South,171,5.8,5.8,84,0.00,CLR,,0.00,WeatherDisplay:10.37,2013-01-13 20:46:00,
2013-01-13 15:51:00,71.9,66.8,30.07,SSE,152,3.5,3.5,84,0.00,CLR,,0.00,WeatherDisplay:10.37,2013-01-13 20:51:00,
2013-01-13 15:56:00,72.2,66.7,30.08,SSW,199,0.0,0.0,83,0.00,CLR,,0.00,WeatherDisplay:10.37,2013-01-13 20:56:00,
2013-01-13 16:01:00,72.2,66.7,30.08,South,171,1.1,0.0,83,0.00,CLR,,0.00,WeatherDisplay:10.37,2013-01-13 21:01:00,
2013-01-13 16:06:00,72.5,65.6,30.08,SSW,208,3.5,3.5,79,0.00,CLR,,0.00,WeatherDisplay:10.37,2013-01-13 21:06:00,
2013-01-13 16:11:00,73.4,64.2,30.08,South,181,3.5,3.5,73,0.00,CLR,,0.00,WeatherDisplay:10.37,2013-01-13 21:11:00,
2013-01-13 16:16:00,72.9,64.5,30.08,South,178,0.0,0.0,75,0.00,CLR,,0.00,WeatherDisplay:10.37,2013-01-13 21:16:00,
2013-01-13 16:21:00,72.2,64.6,30.08,South,178,0.0,0.0,77,0.00,CLR,,0.00,WeatherDisplay:10.37,2013-01-13 21:21:00,
2013-01-13 16:26:00,71.5,64.6,30.08,South,178,0.0,0.0,79,0.00,CLR,,0.00,WeatherDisplay:10.37,2013-01-13 21:26:00,
2013-01-13 16:31:00,71.2,64.7,30.08,SSW,209,2.0,2.0,80,0.00,CLR,,0.00,WeatherDisplay:10.37,2013-01-13 21:31:00,
2013-01-13 16:36:00,71.6,64.4,30.08,SSW,199,2.3,2.3,78,0.00,CLR,,0.00,WeatherDisplay:10.37,2013-01-13 21:36:00,
2013-01-13 16:41:00,72.2,64.2,30.09,SSW,199,0.0,0.0,76,0.00,CLR,,0.00,WeatherDisplay:10.37,2013-01-13 21:41:00,
2013-01-13 16:46:00,71.7,64.5,30.09,SSW,199,0.0,0.0,78,0.00,CLR,,0.00,WeatherDisplay:10.37,2013-01-13 21:46:00,
2013-01-13 16:51:00,71.8,64.6,30.09,West,265,3.5,3.5,78,0.00,CLR,,0.00,WeatherDisplay:10.37,2013-01-13 21:51:00,
2013-01-13 16:56:00,71.8,64.6,30.09,West,277,3.5,3.5,78,0.00,CLR,,0.00,WeatherDisplay:10.37,2013-01-13 21:56:00,
2013-01-13 17:01:00,71.6,64.4,30.09,SSW,198,2.3,2.3,78,0.00,CLR,,0.00,WeatherDisplay:10.37,2013-01-13 22:01:00,
2013-01-13 17:06:00,71.1,64.6,30.09,SSW,198,0.0,0.0,80,0.00,CLR,,0.00,WeatherDisplay:10.37,2013-01-13 22:06:00,
2013-01-13 17:11:00,70.4,65.0,30.09,West,267,0.0,0.0,83,0.00,CLR,,0.00,WeatherDisplay:10.37,2013-01-13 22:11:00,
2013-01-13 17:16:00,69.7,64.6,30.09,West,267,0.0,0.0,84,0.00,CLR,,0.00,WeatherDisplay:10.37,2013-01-13 22:16:00,
2013-01-13 17:21:00,69.4,65.0,30.09,West,267,0.0,0.0,86,0.00,CLR,,0.00,WeatherDisplay:10.37,2013-01-13 22:21:00,
2013-01-13 17:26:00,69.0,65.3,30.09,West,267,0.0,0.0,88,0.00,CLR,,0.00,WeatherDisplay:10.37,2013-01-13 22:26:00,
2013-01-13 17:31:00,68.5,65.1,30.09,West,267,0.0,0.0,89,0.00,CLR,,0.00,WeatherDisplay:10.37,2013-01-13 22:31:00,
2013-01-13 17:36:00,68.4,65.4,30.08,West,267,0.0,0.0,90,0.00,CLR,,0.00,WeatherDisplay:10.37,2013-01-13 22:36:00,
2013-01-13 17:41:00,68.2,65.5,30.08,West,267,0.0,0.0,91,0.00,CLR,,0.00,WeatherDisplay:10.37,2013-01-13 22:41:00,
2013-01-13 17:46:00,67.9,65.5,30.09,West,267,0.0,0.0,92,0.00,CLR,,0.00,WeatherDisplay:10.37,2013-01-13 22:46:00,
2013-01-13 17:51:00,67.7,65.3,30.08,West,267,0.0,0.0,92,0.00,CLR,,0.00,WeatherDisplay:10.37,2013-01-13 22:51:00,
2013-01-13 17:56:00,67.4,65.3,30.09,West,267,0.0,0.0,93,0.00,CLR,,0.00,WeatherDisplay:10.37,2013-01-13 22:56:00,
2013-01-13 18:01:00,67.0,65.5,30.09,West,267,0.0,0.0,95,0.00,CLR,,0.00,WeatherDisplay:10.37,2013-01-13 23:01:00,
2013-01-13 18:06:00,66.3,65.1,30.08,West,267,0.0,0.0,96,0.00,CLR,,0.00,WeatherDisplay:10.37,2013-01-13 23:06:00,
2013-01-13 18:11:00,65.8,64.6,30.08,West,267,0.0,0.0,96,0.00,CLR,,0.00,WeatherDisplay:10.37,2013-01-13 23:11:00,
2013-01-13 18:16:00,65.6,64.7,30.08,West,267,0.0,0.0,97,0.00,CLR,,0.00,WeatherDisplay:10.37,2013-01-13 23:16:00,
2013-01-13 18:21:00,65.3,64.4,30.09,West,267,0.0,0.0,97,0.00,CLR,,0.00,WeatherDisplay:10.37,2013-01-13 23:21:00,
2013-01-13 18:26:00,65.0,64.4,30.08,West,267,0.0,0.0,98,0.00,CLR,,0.00,WeatherDisplay:10.37,2013-01-13 23:26:00,
2013-01-13 18:31:00,65.0,64.4,30.08,West,267,0.0,0.0,98,0.00,CLR,,0.00,WeatherDisplay:10.37,2013-01-13 23:31:00,
2013-01-13 18:36:00,65.4,65.1,30.08,West,267,0.0,0.0,99,0.00,CLR,,0.00,WeatherDisplay:10.37,2013-01-13 23:36:00,
2013-01-13 18:41:00,66.4,66.1,30.08,West,267,0.0,0.0,99,0.00,CLR,,0.00,WeatherDisplay:10.37,2013-01-13 23:41:00,
2013-01-13 18:46:00,66.3,65.1,30.08,West,267,0.0,0.0,96,0.00,CLR,,0.00,WeatherDisplay:10.37,2013-01-13 23:46:00,
2013-01-13 18:51:00,65.7,64.5,30.08,West,267,0.0,0.0,96,0.00,CLR,,0.00,WeatherDisplay:10.37,2013-01-13 23:51:00,
2013-01-13 18:56:00,65.1,64.2,30.09,West,267,0.0,0.0,97,0.00,CLR,,0.00,WeatherDisplay:10.37,2013-01-13 23:56:00,
2013-01-13 19:02:00,64.6,63.7,30.08,West,267,0.0,0.0,97,0.00,CLR,,0.00,WeatherDisplay:10.37,2013-01-14 00:02:00,
2013-01-13 19:07:00,64.1,63.5,30.08,West,267,0.0,0.0,98,0.00,CLR,,0.00,WeatherDisplay:10.37,2013-01-14 00:07:00,
2013-01-13 19:12:00,63.4,63.1,30.08,West,267,0.0,0.0,99,0.00,CLR,,0.00,WeatherDisplay:10.37,2013-01-14 00:12:00,
2013-01-13 19:17:00,63.2,62.9,30.08,West,267,0.0,0.0,99,0.00,CLR,,0.00,WeatherDisplay:10.37,2013-01-14 00:17:00,
2013-01-13 19:22:00,63.2,62.6,30.08,West,267,0.0,0.0,98,0.00,CLR,,0.00,WeatherDisplay:10.37,2013-01-14 00:22:00,
2013-01-13 19:27:00,62.8,62.5,30.08,West,267,0.0,0.0,99,0.00,CLR,,0.00,WeatherDisplay:10.37,2013-01-14 00:27:00,
2013-01-13 19:32:00,62.5,62.5,30.08,West,267,0.0,0.0,100,0.00,CLR,,0.00,WeatherDisplay:10.37,2013-01-14 00:32:00,
2013-01-13 19:37:00,62.3,62.3,30.08,West,267,0.0,0.0,100,0.00,CLR,,0.00,WeatherDisplay:10.37,2013-01-14 00:37:00,
2013-01-13 19:42:00,62.5,62.2,30.08,West,267,0.0,0.0,99,0.00,CLR,,0.00,WeatherDisplay:10.37,2013-01-14 00:42:00,
2013-01-13 19:47:00,62.2,62.2,30.08,West,267,0.0,0.0,100,0.00,CLR,,0.00,WeatherDisplay:10.37,2013-01-14 00:47:00,
2013-01-13 19:52:00,61.8,61.8,30.08,West,267,0.0,0.0,100,0.00,CLR,,0.00,WeatherDisplay:10.37,2013-01-14 00:52:00,
2013-01-13 19:57:00,61.5,61.5,30.08,West,267,0.0,0.0,100,0.00,CLR,,0.00,WeatherDisplay:10.37,2013-01-14 00:57:00,
2013-01-13 20:02:00,61.5,61.5,30.08,West,267,0.0,0.0,100,0.00,CLR,,0.00,WeatherDisplay:10.37,2013-01-14 01:02:00,
2013-01-13 20:07:00,61.7,61.7,30.08,West,267,0.0,0.0,100,0.00,CLR,,0.00,WeatherDisplay:10.37,2013-01-14 01:07:00,
2013-01-13 20:12:00,61.4,61.4,30.08,West,267,0.0,0.0,100,0.00,CLR,,0.00,WeatherDisplay:10.37,2013-01-14 01:12:00,
2013-01-13 20:17:00,61.2,61.2,30.08,West,267,0.0,0.0,100,0.00,CLR,,0.00,WeatherDisplay:10.37,2013-01-14 01:17:00,
2013-01-13 20:22:00,60.8,60.8,30.08,West,267,0.0,0.0,100,0.00,CLR,,0.00,WeatherDisplay:10.37,2013-01-14 01:22:00,
2013-01-13 20:27:00,60.5,60.5,30.08,West,267,0.0,0.0,100,0.00,CLR,,0.00,WeatherDisplay:10.37,2013-01-14 01:27:00,
2013-01-13 20:32:00,60.7,60.7,30.08,West,267,0.0,0.0,100,0.00,CLR,,0.00,WeatherDisplay:10.37,2013-01-14 01:32:00,
2013-01-13 20:37:00,60.8,60.8,30.08,West,267,0.0,0.0,100,0.00,CLR,,0.00,WeatherDisplay:10.37,2013-01-14 01:37:00,
2013-01-13 20:42:00,60.5,60.5,30.08,West,267,0.0,0.0,100,0.00,CLR,,0.00,WeatherDisplay:10.37,2013-01-14 01:42:00,
2013-01-13 20:47:00,60.0,60.0,30.08,West,267,0.0,0.0,100,0.00,CLR,,0.00,WeatherDisplay:10.37,2013-01-14 01:47:00,
2013-01-13 20:52:00,60.0,60.0,30.08,West,267,0.0,0.0,100,0.00,CLR,,0.00,WeatherDisplay:10.37,2013-01-14 01:52:00,
2013-01-13 20:57:00,60.0,60.0,30.08,West,267,0.0,0.0,100,0.00,CLR,,0.00,WeatherDisplay:10.37,2013-01-14 01:57:00,
2013-01-13 21:02:00,59.8,59.8,30.08,West,267,0.0,0.0,100,0.00,CLR,,0.00,WeatherDisplay:10.37,2013-01-14 02:02:00,
2013-01-13 21:07:00,59.7,59.7,30.08,West,267,0.0,0.0,100,0.00,CLR,,0.00,WeatherDisplay:10.37,2013-01-14 02:07:00,
2013-01-13 21:12:00,60.0,60.0,30.07,West,267,0.0,0.0,100,0.00,CLR,,0.00,WeatherDisplay:10.37,2013-01-14 02:12:00,
2013-01-13 21:17:00,60.1,60.1,30.08,West,267,0.0,0.0,100,0.00,CLR,,0.00,WeatherDisplay:10.37,2013-01-14 02:17:00,
2013-01-13 21:22:00,60.0,60.0,30.07,West,267,0.0,0.0,100,0.00,CLR,,0.00,WeatherDisplay:10.37,2013-01-14 02:22:00,
2013-01-13 21:27:00,59.6,59.6,30.07,West,267,0.0,0.0,100,0.00,CLR,,0.00,WeatherDisplay:10.37,2013-01-14 02:27:00,
2013-01-13 21:32:00,59.4,59.4,30.08,West,267,0.0,0.0,100,0.00,CLR,,0.00,WeatherDisplay:10.37,2013-01-14 02:32:00,
2013-01-13 21:37:00,59.4,59.4,30.08,West,267,0.0,0.0,100,0.00,CLR,,0.00,WeatherDisplay:10.37,2013-01-14 02:37:00,
2013-01-13 21:42:00,59.4,59.4,30.08,West,267,0.0,0.0,100,0.00,CLR,,0.00,WeatherDisplay:10.37,2013-01-14 02:42:00,
2013-01-13 21:47:00,59.3,59.3,30.08,West,267,0.0,0.0,100,0.00,CLR,,0.00,WeatherDisplay:10.37,2013-01-14 02:47:00,
2013-01-13 21:52:00,59.0,59.0,30.08,West,267,0.0,0.0,100,0.00,CLR,,0.00,WeatherDisplay:10.37,2013-01-14 02:52:00,
2013-01-13 21:57:00,58.9,58.9,30.08,West,267,0.0,0.0,100,0.00,CLR,,0.00,WeatherDisplay:10.37,2013-01-14 02:57:00,
2013-01-13 22:02:00,58.8,58.8,30.08,West,267,0.0,0.0,100,0.00,CLR,,0.00,WeatherDisplay:10.37,2013-01-14 03:02:00,
2013-01-13 22:07:00,58.7,58.7,30.08,West,267,0.0,0.0,100,0.00,CLR,,0.00,WeatherDisplay:10.37,2013-01-14 03:07:00,
2013-01-13 22:12:00,58.8,58.8,30.09,West,267,0.0,0.0,100,0.00,CLR,,0.00,WeatherDisplay:10.37,2013-01-14 03:12:00,
2013-01-13 22:17:00,58.7,58.7,30.09,West,267,0.0,0.0,100,0.00,CLR,,0.00,WeatherDisplay:10.37,2013-01-14 03:17:00,
2013-01-13 22:22:00,58.8,58.8,30.09,West,267,0.0,0.0,100,0.00,CLR,,0.00,WeatherDisplay:10.37,2013-01-14 03:22:00,
2013-01-13 22:27:00,58.9,58.9,30.09,West,267,0.0,0.0,100,0.00,CLR,,0.00,WeatherDisplay:10.37,2013-01-14 03:27:00,
2013-01-13 22:32:00,58.7,58.7,30.08,West,267,0.0,0.0,100,0.00,CLR,,0.00,WeatherDisplay:10.37,2013-01-14 03:32:00,
2013-01-13 22:37:00,58.6,58.6,30.08,West,267,0.0,0.0,100,0.00,CLR,,0.00,WeatherDisplay:10.37,2013-01-14 03:37:00,
2013-01-13 22:42:00,58.6,58.6,30.08,West,267,0.0,0.0,100,0.00,CLR,,0.00,WeatherDisplay:10.37,2013-01-14 03:42:00,
2013-01-13 22:47:00,58.7,58.7,30.08,West,267,0.0,0.0,100,0.00,CLR,,0.00,WeatherDisplay:10.37,2013-01-14 03:47:00,
2013-01-13 22:52:00,58.8,58.8,30.08,West,267,0.0,0.0,100,0.00,CLR,,0.00,WeatherDisplay:10.37,2013-01-14 03:52:00,
2013-01-13 22:57:00,58.7,58.7,30.08,West,267,0.0,0.0,100,0.00,CLR,,0.00,WeatherDisplay:10.37,2013-01-14 03:57:00,
2013-01-13 23:02:00,58.7,58.7,30.08,West,267,0.0,0.0,100,0.00,CLR,,0.00,WeatherDisplay:10.37,2013-01-14 04:02:00,
2013-01-13 23:07:00,58.7,58.7,30.08,West,267,0.0,0.0,100,0.00,CLR,,0.00,WeatherDisplay:10.37,2013-01-14 04:07:00,
2013-01-13 23:12:00,58.8,58.8,30.08,West,267,0.0,0.0,100,0.00,CLR,,0.00,WeatherDisplay:10.37,2013-01-14 04:12:00,
2013-01-13 23:17:00,58.8,58.8,30.08,West,267,0.0,0.0,100,0.00,CLR,,0.00,WeatherDisplay:10.37,2013-01-14 04:17:00,
2013-01-13 23:22:00,58.7,58.7,30.08,West,267,0.0,0.0,100,0.00,CLR,,0.00,WeatherDisplay:10.37,2013-01-14 04:22:00,
2013-01-13 23:27:00,58.7,58.7,30.08,West,267,0.0,0.0,100,0.00,CLR,,0.00,WeatherDisplay:10.37,2013-01-14 04:27:00,
2013-01-13 23:32:00,58.8,58.8,30.08,West,267,0.0,0.0,100,0.00,CLR,,0.00,WeatherDisplay:10.37,2013-01-14 04:32:00,
2013-01-13 23:37:00,58.9,58.9,30.08,West,267,0.0,0.0,100,0.00,CLR,,0.00,WeatherDisplay:10.37,2013-01-14 04:37:00,
2013-01-13 23:42:00,59.2,59.2,30.08,West,267,0.0,0.0,100,0.00,CLR,,0.00,WeatherDisplay:10.37,2013-01-14 04:42:00,
2013-01-13 23:47:00,59.1,59.1,30.08,West,267,0.0,0.0,100,0.00,CLR,,0.00,WeatherDisplay:10.37,2013-01-14 04:47:00,
2013-01-13 23:52:00,58.9,58.9,30.08,West,267,0.0,0.0,100,0.00,CLR,,0.00,WeatherDisplay:10.37,2013-01-14 04:52:00,
2013-01-13 23:57:00,58.9,58.9,30.08,West,267,0.0,0.0,100,0.00,CLR,,0.00,WeatherDisplay:10.37,2013-01-14 04:57:00,